SXS6NT EGBB-LTBJ

Flight info

Callsign SXS6NT
Flight time N/A
Altitude 37000
Route UNGAP P155 SIVDA P137 REDFA DCT TACHA DCT NOLRU DCT TIVUN DCT ESAMA DCT OSBIT DCT TENLO DCT LAMSI/N0454F370 DCT BARUG DCT SASAL DCT SOGMO DCT BABIT DCT KOTUS DCT OBAGI DCT NISVA DCT NIKTI DCT LMO UN128 RIKSO
Aircraft B38M/M-SADE2E3GIJ4J7RW/LB1D1

Departure

Time 2026-05-05 09:33
Airport Birmingham Airport (EGBB)

Arrival

Time N/A
Airport Adnan Menderes International Airport (LTBJ)
Time Latitude Longitude Altitude Speed Heading
2026-05-05 09:04 52.44993 -1.73408 347 ft 0 kts 326°
2026-05-05 09:24 52.44986 -1.73400 347 ft 2 kts 326°
2026-05-05 09:24 52.44975 -1.73388 348 ft 2 kts 307°
2026-05-05 09:25 52.44969 -1.73363 350 ft 2 kts 272°
2026-05-05 09:25 52.44972 -1.73338 351 ft 0 kts 239°
2026-05-05 09:25 52.44976 -1.73328 351 ft 0 kts 235°
2026-05-05 09:27 52.44967 -1.73351 350 ft 4 kts 235°
2026-05-05 09:28 52.44940 -1.73420 347 ft 8 kts 245°
2026-05-05 09:28 52.44904 -1.73546 340 ft 13 kts 236°
2026-05-05 09:28 52.44849 -1.73670 334 ft 8 kts 220°
2026-05-05 09:28 52.44799 -1.73703 334 ft 5 kts 197°
2026-05-05 09:29 52.44762 -1.73722 335 ft 5 kts 196°
2026-05-05 09:29 52.44723 -1.73725 335 ft 5 kts 170°
2026-05-05 09:29 52.44690 -1.73702 336 ft 5 kts 150°
2026-05-05 09:29 52.44651 -1.73662 338 ft 6 kts 145°
2026-05-05 09:30 52.44611 -1.73617 341 ft 6 kts 145°
2026-05-05 09:30 52.44571 -1.73572 343 ft 6 kts 145°
2026-05-05 09:30 52.44531 -1.73526 346 ft 7 kts 144°
2026-05-05 09:30 52.44462 -1.73447 350 ft 14 kts 144°
2026-05-05 09:31 52.44392 -1.73420 351 ft 8 kts 200°
2026-05-05 09:31 52.44348 -1.73495 348 ft 6 kts 239°
2026-05-05 09:31 52.44338 -1.73524 347 ft 3 kts 239°
2026-05-05 09:31 52.44322 -1.73567 346 ft 4 kts 239°
2026-05-05 09:32 52.44317 -1.73612 345 ft 4 kts 307°
2026-05-05 09:32 52.44344 -1.73645 344 ft 5 kts 325°
2026-05-05 09:32 52.44579 -1.73904 336 ft 77 kts 326°
2026-05-05 09:32 52.45316 -1.74723 329 ft 145 kts 326°
2026-05-05 09:33 52.46361 -1.75887 717 ft 168 kts 326°
2026-05-05 09:33 52.47410 -1.77073 1561 ft 172 kts 328°
2026-05-05 09:33 52.48514 -1.78252 2167 ft 182 kts 329°
2026-05-05 09:33 52.49730 -1.79533 2593 ft 199 kts 334°
2026-05-05 09:34 52.51242 -1.80035 3062 ft 214 kts
2026-05-05 09:34 52.52777 -1.78978 3750 ft 224 kts 35°
2026-05-05 09:34 52.53973 -1.76986 4574 ft 229 kts 57°
2026-05-05 09:34 52.54392 -1.74136 5341 ft 239 kts 95°
2026-05-05 09:35 52.53801 -1.71204 5935 ft 247 kts 114°
2026-05-05 09:35 52.52117 -1.65446 5994 ft 256 kts 129°
2026-05-05 09:35 52.50682 -1.63095 6011 ft 274 kts 135°
2026-05-05 09:36 52.49101 -1.60619 6135 ft 275 kts 134°
2026-05-05 09:36 52.47558 -1.58132 6551 ft 281 kts 134°
2026-05-05 09:36 52.46005 -1.55625 6970 ft 284 kts 134°
2026-05-05 09:36 52.44403 -1.53060 7449 ft 285 kts 134°
2026-05-05 09:37 52.42818 -1.50534 8058 ft 287 kts 134°
2026-05-05 09:37 52.41199 -1.47961 8680 ft 290 kts 135°
2026-05-05 09:37 52.39582 -1.45393 9292 ft 293 kts 135°
2026-05-05 09:37 52.37931 -1.42771 9911 ft 296 kts 134°
2026-05-05 09:38 52.36461 -1.39901 10504 ft 302 kts 119°
2026-05-05 09:38 52.35731 -1.36333 10969 ft 312 kts 92°
2026-05-05 09:38 52.35712 -1.32275 11466 ft 323 kts 87°
2026-05-05 09:38 52.35802 -1.28175 11932 ft 334 kts 87°
2026-05-05 09:39 52.35867 -1.23994 12394 ft 346 kts 88°
2026-05-05 09:39 52.35902 -1.19510 12870 ft 356 kts 88°
2026-05-05 09:39 52.35916 -1.15282 13307 ft 366 kts 89°
2026-05-05 09:39 52.35922 -1.10960 13742 ft 374 kts 89°
2026-05-05 09:40 52.35927 -1.06210 14214 ft 383 kts 89°
2026-05-05 09:40 52.35932 -1.01302 14691 ft 391 kts 89°
2026-05-05 09:40 52.35936 -0.96645 15138 ft 398 kts 89°
2026-05-05 09:40 52.35940 -0.91628 15616 ft 405 kts 90°
2026-05-05 09:41 52.35941 -0.86565 16090 ft 411 kts 90°
2026-05-05 09:41 52.35939 -0.81364 16564 ft 417 kts 90°
2026-05-05 09:41 52.35935 -0.76237 17024 ft 423 kts 90°
2026-05-05 09:41 52.35929 -0.71019 17495 ft 428 kts 90°
2026-05-05 09:42 52.35920 -0.65789 17959 ft 432 kts 91°
2026-05-05 09:42 52.35910 -0.60475 18424 ft 437 kts 91°
2026-05-05 09:42 52.35897 -0.54829 18921 ft 441 kts 91°
2026-05-05 09:42 52.35880 -0.49076 19421 ft 445 kts 91°
2026-05-05 09:43 52.35860 -0.43347 19915 ft 449 kts 91°
2026-05-05 09:43 52.35836 -0.37563 20411 ft 452 kts 91°
2026-05-05 09:43 52.35811 -0.31693 20911 ft 455 kts 92°
2026-05-05 09:43 52.35781 -0.25829 21407 ft 458 kts 92°
2026-05-05 09:44 52.35749 -0.19818 21921 ft 460 kts 92°
2026-05-05 09:44 52.35714 -0.13924 22425 ft 462 kts 92°
2026-05-05 09:44 52.35675 -0.08034 22915 ft 464 kts 92°
2026-05-05 09:44 52.35634 -0.02016 23428 ft 466 kts 92°
2026-05-05 09:45 52.35539 0.03503 23897 ft 467 kts 95°
2026-05-05 09:45 52.35233 0.09095 24383 ft 467 kts 98°
2026-05-05 09:45 52.34774 0.14723 24878 ft 468 kts 100°
2026-05-05 09:45 52.34256 0.20277 25366 ft 469 kts 101°
2026-05-05 09:46 52.33701 0.26016 25872 ft 469 kts 101°
2026-05-05 09:46 52.33150 0.31684 26373 ft 469 kts 101°
2026-05-05 09:46 52.32597 0.37441 26878 ft 469 kts 100°
2026-05-05 09:46 52.32041 0.43297 27400 ft 469 kts 100°
2026-05-05 09:47 52.31500 0.49060 27911 ft 468 kts 100°
2026-05-05 09:47 52.30959 0.54866 28431 ft 467 kts 100°
2026-05-05 09:47 52.30418 0.60681 28958 ft 466 kts 100°
2026-05-05 09:47 52.29890 0.66368 29477 ft 464 kts 101°
2026-05-05 09:48 52.29377 0.71871 29978 ft 462 kts 101°
2026-05-05 09:48 52.28868 0.77297 30479 ft 459 kts 101°
2026-05-05 09:48 52.28338 0.82922 30997 ft 457 kts 101°
2026-05-05 09:48 52.27807 0.88533 31477 ft 454 kts 101°
2026-05-05 09:49 52.27277 0.94105 31942 ft 451 kts 101°
2026-05-05 09:49 52.26753 0.99592 32416 ft 447 kts 101°
2026-05-05 09:49 52.26220 1.05137 32900 ft 443 kts 101°
2026-05-05 09:49 52.25695 1.10580 33375 ft 439 kts 101°
2026-05-05 09:50 52.25169 1.16008 33851 ft 435 kts 101°
2026-05-05 09:50 52.24654 1.21298 34329 ft 430 kts 101°
2026-05-05 09:50 52.24145 1.26501 34774 ft 424 kts 101°
2026-05-05 09:50 52.23624 1.31800 35212 ft 418 kts 101°
2026-05-05 09:51 52.23119 1.36899 35616 ft 412 kts 101°
2026-05-05 09:51 52.22622 1.41902 36012 ft 405 kts 101°
2026-05-05 09:51 52.22155 1.46592 36394 ft 398 kts 101°
2026-05-05 09:51 52.21706 1.51090 36743 ft 390 kts 101°
2026-05-05 09:52 52.21272 1.55403 36910 ft 389 kts 101°
2026-05-05 09:52 52.20831 1.59743 36958 ft 390 kts 101°
2026-05-05 09:52 52.19931 1.68522 36970 ft 399 kts 102°
2026-05-05 09:53 52.19009 1.77525 36969 ft 408 kts 101°
2026-05-05 09:53 52.18066 1.86687 36988 ft 412 kts 101°
2026-05-05 09:54 52.17106 1.95927 36639 ft 416 kts 101°
2026-05-05 09:54 52.16625 2.00549 37202 ft 412 kts 102°
2026-05-05 09:54 52.16140 2.05162 37163 ft 415 kts 102°
2026-05-05 09:55 52.15653 2.09787 36892 ft 416 kts 102°
2026-05-05 09:55 52.15160 2.14449 36950 ft 417 kts 102°
2026-05-05 09:55 52.14140 2.23987 36968 ft 427 kts 102°
2026-05-05 09:56 52.13096 2.33670 36957 ft 438 kts 102°
2026-05-05 09:56 52.12099 2.43762 36967 ft 451 kts 97°
2026-05-05 09:57 52.12483 2.54347 36966 ft 466 kts 78°
2026-05-05 09:57 52.14246 2.64665 36961 ft 464 kts 73°
2026-05-05 09:58 52.16257 2.74770 36963 ft 469 kts 73°
2026-05-05 09:58 52.18257 2.84899 36961 ft 471 kts 74°
2026-05-05 09:59 52.20199 2.95012 36955 ft 470 kts 74°
2026-05-05 09:59 52.22126 3.05251 36946 ft 473 kts 75°
2026-05-05 10:00 52.23972 3.15497 36952 ft 473 kts 78°
2026-05-05 10:00 52.24507 3.25948 36959 ft 466 kts 99°
2026-05-05 10:01 52.22805 3.36109 36955 ft 462 kts 112°
2026-05-05 10:01 52.20475 3.45951 36945 ft 461 kts 114°
2026-05-05 10:02 52.18070 3.55810 36951 ft 462 kts 114°
2026-05-05 10:02 52.15661 3.65668 36945 ft 461 kts 115°
2026-05-05 10:03 52.13254 3.75542 36935 ft 461 kts 115°
2026-05-05 10:03 52.10841 3.85430 36931 ft 462 kts 115°
2026-05-05 10:04 52.08365 3.95552 36946 ft 463 kts 115°
2026-05-05 10:04 52.06036 4.05056 36948 ft 462 kts 115°
2026-05-05 10:05 52.03626 4.14820 36941 ft 463 kts 115°
2026-05-05 10:05 52.01155 4.24788 36939 ft 463 kts 115°
2026-05-05 10:06 51.98685 4.34698 36933 ft 465 kts 115°
2026-05-05 10:06 51.96166 4.44768 36932 ft 464 kts 115°
2026-05-05 10:07 51.93448 4.55576 36926 ft 463 kts 115°
2026-05-05 10:07 51.90703 4.66446 36922 ft 464 kts 116°
2026-05-05 10:08 51.88054 4.76891 36914 ft 464 kts 116°
2026-05-05 10:08 51.85432 4.87170 36907 ft 464 kts 116°
2026-05-05 10:09 51.82755 4.97626 36906 ft 464 kts 116°
2026-05-05 10:09 51.80087 5.07999 36906 ft 465 kts 117°
2026-05-05 10:10 51.77466 5.18137 36906 ft 464 kts 117°
2026-05-05 10:10 51.74788 5.28457 36906 ft 465 kts 116°
2026-05-05 10:11 51.72152 5.38569 36909 ft 464 kts 116°
2026-05-05 10:11 51.69495 5.48710 36912 ft 464 kts 117°
2026-05-05 10:12 51.66827 5.58838 36919 ft 464 kts 116°
2026-05-05 10:12 51.64184 5.68832 36918 ft 464 kts 117°
2026-05-05 10:13 51.61500 5.78938 36921 ft 463 kts 117°
2026-05-05 10:13 51.58884 5.88750 36912 ft 463 kts 117°
2026-05-05 10:14 51.56260 5.98541 36908 ft 464 kts 117°
2026-05-05 10:14 51.53605 6.08411 36903 ft 464 kts 117°
2026-05-05 10:15 51.50940 6.18287 36902 ft 464 kts 117°
2026-05-05 10:15 51.48191 6.27984 36895 ft 462 kts 120°
2026-05-05 10:16 51.45211 6.37356 36895 ft 462 kts 122°
2026-05-05 10:16 51.42098 6.46918 36894 ft 462 kts 122°
2026-05-05 10:17 51.38964 6.56620 36886 ft 462 kts 121°
2026-05-05 10:17 51.35840 6.66342 36888 ft 460 kts 122°
2026-05-05 10:18 51.32757 6.75933 36886 ft 461 kts 122°
2026-05-05 10:18 51.29621 6.85662 36884 ft 461 kts 122°
2026-05-05 10:19 51.26443 6.95482 36884 ft 461 kts 122°
2026-05-05 10:19 51.23372 7.04948 36879 ft 461 kts 122°
2026-05-05 10:20 51.20163 7.14798 36873 ft 459 kts 122°
2026-05-05 10:20 51.17091 7.24178 36867 ft 460 kts 122°
2026-05-05 10:21 51.14113 7.33245 36865 ft 461 kts 122°
2026-05-05 10:21 51.11171 7.42185 36858 ft 459 kts 122°
2026-05-05 10:22 51.08174 7.51255 36850 ft 458 kts 122°
2026-05-05 10:22 51.05266 7.60001 36854 ft 460 kts 122°
2026-05-05 10:23 51.02288 7.68939 36851 ft 458 kts 123°
2026-05-05 10:23 50.99313 7.77833 36855 ft 459 kts 123°
2026-05-05 10:24 50.96308 7.86778 36860 ft 458 kts 123°
2026-05-05 10:24 50.93143 7.95660 36860 ft 455 kts 128°
2026-05-05 10:25 50.89232 8.03337 36864 ft 448 kts 139°
2026-05-05 10:25 50.84804 8.10193 36866 ft 444 kts 142°
2026-05-05 10:26 50.80305 8.16870 36867 ft 445 kts 142°
2026-05-05 10:26 50.75814 8.23562 36869 ft 443 kts 141°
2026-05-05 10:27 50.71350 8.30256 36860 ft 444 kts 141°
2026-05-05 10:27 50.66901 8.36950 36855 ft 443 kts 141°
2026-05-05 10:28 50.62474 8.43615 36850 ft 444 kts 141°
2026-05-05 10:28 50.58009 8.50326 36848 ft 443 kts 141°
2026-05-05 10:29 50.53557 8.57005 36847 ft 444 kts 141°
2026-05-05 10:29 50.49106 8.63668 36840 ft 444 kts 141°
2026-05-05 10:30 50.44665 8.70290 36842 ft 441 kts 142°
2026-05-05 10:30 50.40221 8.76892 36838 ft 443 kts 142°
2026-05-05 10:31 50.35835 8.83711 36845 ft 445 kts 136°
2026-05-05 10:31 50.32353 8.91787 36844 ft 454 kts 123°
2026-05-05 10:32 50.29591 9.00826 36845 ft 458 kts 119°
2026-05-05 10:32 50.27013 9.10002 36846 ft 458 kts 118°
2026-05-05 10:33 50.24431 9.19136 36848 ft 458 kts 119°
2026-05-05 10:33 50.21780 9.28328 36847 ft 458 kts 119°
2026-05-05 10:34 50.19109 9.37461 36849 ft 460 kts 119°
2026-05-05 10:34 50.16417 9.46618 36846 ft 456 kts 119°
2026-05-05 10:35 50.13740 9.55681 36851 ft 458 kts 119°
2026-05-05 10:35 50.11063 9.64687 36839 ft 457 kts 119°
2026-05-05 10:36 50.08404 9.73602 36838 ft 455 kts 120°
2026-05-05 10:36 50.05474 9.82324 36845 ft 453 kts 126°
2026-05-05 10:37 50.02087 9.90462 36840 ft 448 kts 129°
2026-05-05 10:37 49.98581 9.98524 36842 ft 449 kts 129°
2026-05-05 10:38 49.95095 10.06542 36839 ft 450 kts 128°
2026-05-05 10:38 49.91604 10.14643 36837 ft 450 kts 128°
2026-05-05 10:39 49.88137 10.22712 36831 ft 450 kts 128°
2026-05-05 10:39 49.84662 10.30804 36818 ft 451 kts 128°
2026-05-05 10:40 49.81165 10.38942 36826 ft 450 kts 128°
2026-05-05 10:40 49.77695 10.46987 36825 ft 452 kts 128°
2026-05-05 10:41 49.74204 10.55051 36820 ft 452 kts 128°
2026-05-05 10:41 49.70705 10.63112 36819 ft 451 kts 128°
2026-05-05 10:42 49.65478 10.75110 36825 ft 450 kts 128°
2026-05-05 10:43 49.61966 10.83139 36830 ft 452 kts 128°
2026-05-05 10:43 49.58459 10.91132 36827 ft 452 kts 128°
2026-05-05 10:44 49.54915 10.99179 36825 ft 452 kts 128°
2026-05-05 10:44 49.51423 11.07590 36824 ft 454 kts 123°
2026-05-05 10:45 49.48329 11.16774 36826 ft 457 kts 120°
2026-05-05 10:45 49.45335 11.26201 36824 ft 457 kts 120°
2026-05-05 10:46 49.42327 11.35523 36827 ft 457 kts 120°
2026-05-05 10:46 49.39275 11.44826 36829 ft 457 kts 120°
2026-05-05 10:47 49.36115 11.54366 36832 ft 457 kts 120°
2026-05-05 10:47 49.32921 11.63943 36832 ft 457 kts 120°
2026-05-05 10:48 49.29765 11.73350 36835 ft 456 kts 121°
2026-05-05 10:48 49.26517 11.82992 36836 ft 457 kts 121°
2026-05-05 10:49 49.23439 11.92099 36838 ft 456 kts 121°
2026-05-05 10:49 49.20340 12.01239 36827 ft 456 kts 121°
2026-05-05 10:50 49.17306 12.10145 36814 ft 458 kts 121°
2026-05-05 10:50 49.14165 12.19350 36806 ft 458 kts 121°
2026-05-05 10:51 49.11045 12.28468 36801 ft 458 kts 120°
2026-05-05 10:51 49.07880 12.37687 36803 ft 459 kts 120°
2026-05-05 10:52 49.04654 12.47001 36805 ft 459 kts 120°
2026-05-05 10:52 49.01454 12.56232 36812 ft 459 kts 120°
2026-05-05 10:53 48.98185 12.65640 36826 ft 459 kts 121°
2026-05-05 10:53 48.94861 12.75166 36831 ft 460 kts 121°
2026-05-05 10:54 48.91491 12.84782 36833 ft 460 kts 121°
2026-05-05 10:54 48.88134 12.94332 36831 ft 461 kts 121°
2026-05-05 10:55 48.84795 13.03788 36824 ft 461 kts 121°
2026-05-05 10:55 48.81531 13.12999 36825 ft 462 kts 121°
2026-05-05 10:56 48.78258 13.22214 36824 ft 461 kts 121°
2026-05-05 10:56 48.74969 13.31444 36816 ft 462 kts 121°
2026-05-05 10:57 48.71710 13.40568 36817 ft 462 kts 121°
2026-05-05 10:57 48.68516 13.49472 36823 ft 462 kts 121°
2026-05-05 10:58 48.65373 13.58196 36829 ft 461 kts 121°
2026-05-05 10:58 48.62023 13.66777 36832 ft 461 kts 125°
2026-05-05 10:59 48.58467 13.75201 36840 ft 459 kts 126°
2026-05-05 10:59 48.54745 13.83949 36844 ft 461 kts 125°
2026-05-05 11:00 48.50892 13.93075 36839 ft 460 kts 125°
2026-05-05 11:00 48.47244 14.01750 36832 ft 461 kts 124°
2026-05-05 11:01 48.43553 14.10518 36834 ft 461 kts 125°
2026-05-05 11:01 48.39894 14.19194 36833 ft 461 kts 124°
2026-05-05 11:02 48.36147 14.28058 36823 ft 461 kts 124°
2026-05-05 11:02 48.32229 14.37280 36813 ft 461 kts 125°
2026-05-05 11:03 48.28438 14.46166 36804 ft 460 kts 124°
2026-05-05 11:03 48.24762 14.54769 36797 ft 461 kts 124°
2026-05-05 11:04 48.21050 14.63433 36804 ft 461 kts 124°
2026-05-05 11:04 48.17368 14.71999 36816 ft 461 kts 125°
2026-05-05 11:05 48.13617 14.80695 36824 ft 461 kts 125°
2026-05-05 11:05 48.09837 14.89422 36822 ft 461 kts 125°
2026-05-05 11:06 48.06049 14.98144 36817 ft 460 kts 125°
2026-05-05 11:06 48.02332 15.06669 36818 ft 460 kts 125°
2026-05-05 11:07 47.98626 15.15149 36835 ft 461 kts 125°
2026-05-05 11:07 47.94878 15.23700 36854 ft 461 kts 125°
2026-05-05 11:08 47.91066 15.32371 36861 ft 461 kts 124°
2026-05-05 11:08 47.87079 15.40899 36871 ft 460 kts 129°
2026-05-05 11:09 47.82735 15.48914 36870 ft 460 kts 131°
2026-05-05 11:09 47.78389 15.56743 36867 ft 460 kts 131°
2026-05-05 11:10 47.73989 15.64737 36864 ft 460 kts 130°
2026-05-05 11:10 47.69678 15.72624 36866 ft 460 kts 131°
2026-05-05 11:11 47.65325 15.80600 36875 ft 460 kts 131°
2026-05-05 11:11 47.60954 15.88604 36883 ft 461 kts 131°
2026-05-05 11:12 47.56559 15.96637 36893 ft 460 kts 131°
2026-05-05 11:12 47.52123 16.04717 36902 ft 461 kts 131°
2026-05-05 11:13 47.47619 16.12898 36898 ft 461 kts 130°
2026-05-05 11:13 47.43049 16.21183 36887 ft 461 kts 131°
2026-05-05 11:14 47.38465 16.29459 36879 ft 460 kts 130°
2026-05-05 11:14 47.33859 16.37747 36870 ft 461 kts 131°
2026-05-05 11:15 47.29341 16.45855 36875 ft 460 kts 131°
2026-05-05 11:15 47.24926 16.53826 36882 ft 460 kts 130°
2026-05-05 11:16 47.20568 16.61884 36881 ft 461 kts 129°
2026-05-05 11:16 47.16184 16.70083 36882 ft 460 kts 130°
2026-05-05 11:17 47.11757 16.78343 36883 ft 460 kts 130°
2026-05-05 11:17 47.07356 16.86515 36888 ft 459 kts 130°
2026-05-05 11:18 47.02889 16.94773 36892 ft 460 kts 130°
2026-05-05 11:18 46.98328 17.03173 36898 ft 460 kts 130°
2026-05-05 11:19 46.93757 17.11565 36908 ft 460 kts 130°
2026-05-05 11:19 46.89203 17.19900 36914 ft 459 kts 130°
2026-05-05 11:20 46.85429 17.26800 36917 ft 459 kts 130°
2026-05-05 11:20 46.80464 17.35848 36924 ft 460 kts 130°
2026-05-05 11:21 46.75993 17.43964 36924 ft 460 kts 130°
2026-05-05 11:21 46.71508 17.52081 36927 ft 461 kts 130°
2026-05-05 11:22 46.66902 17.60392 36933 ft 461 kts 130°
2026-05-05 11:22 46.62328 17.68623 36938 ft 460 kts 130°
2026-05-05 11:23 46.57827 17.76694 36946 ft 461 kts 130°
2026-05-05 11:23 46.53245 17.84891 36951 ft 461 kts 130°
2026-05-05 11:24 46.48569 17.93229 36952 ft 462 kts 130°
2026-05-05 11:24 46.44238 18.00932 36958 ft 462 kts 130°
2026-05-05 11:25 46.39951 18.08540 36965 ft 462 kts 131°
2026-05-05 11:25 46.36207 18.15159 36963 ft 462 kts 130°
2026-05-05 11:26 46.30881 18.24550 36963 ft 462 kts 130°
2026-05-05 11:26 46.26259 18.32671 36963 ft 463 kts 130°
2026-05-05 11:27 46.21591 18.40853 36965 ft 463 kts 130°
2026-05-05 11:27 46.16909 18.49033 36964 ft 463 kts 130°
2026-05-05 11:28 46.12244 18.57162 36961 ft 463 kts 130°
2026-05-05 11:28 46.07557 18.65305 36958 ft 463 kts 131°
2026-05-05 11:29 46.02867 18.73433 36966 ft 464 kts 131°
2026-05-05 11:29 45.98198 18.81499 36976 ft 464 kts 131°
2026-05-05 11:30 45.93541 18.89517 36979 ft 465 kts 131°
2026-05-05 11:30 45.88820 18.97620 36976 ft 465 kts 131°
2026-05-05 11:31 45.84166 19.05590 36968 ft 464 kts 131°
2026-05-05 11:31 45.79525 19.13511 36960 ft 464 kts 131°
2026-05-05 11:32 45.74894 19.21395 36958 ft 465 kts 131°
2026-05-05 11:32 45.70272 19.29236 36963 ft 466 kts 131°
2026-05-05 11:33 45.65590 19.37160 36965 ft 466 kts 131°
2026-05-05 11:33 45.60947 19.44998 36963 ft 466 kts 131°
2026-05-05 11:34 45.56211 19.52971 36959 ft 466 kts 131°
2026-05-05 11:34 45.51410 19.61028 36970 ft 467 kts 130°
2026-05-05 11:35 45.46547 19.69168 36979 ft 467 kts 131°
2026-05-05 11:35 45.41756 19.77163 36982 ft 468 kts 131°
2026-05-05 11:36 45.37025 19.85037 36980 ft 468 kts 131°
2026-05-05 11:36 45.32185 19.92971 36975 ft 467 kts 133°
2026-05-05 11:37 45.26793 20.00180 36980 ft 467 kts 140°
2026-05-05 11:37 45.21016 20.06983 36980 ft 467 kts 141°
2026-05-05 11:38 45.15222 20.13761 36986 ft 468 kts 141°
2026-05-05 11:38 45.09390 20.20653 36990 ft 470 kts 140°
2026-05-05 11:39 45.03632 20.27490 36992 ft 469 kts 140°
2026-05-05 11:39 44.97842 20.34367 36991 ft 470 kts 140°
2026-05-05 11:40 44.92042 20.41242 36993 ft 471 kts 140°
2026-05-05 11:40 44.86261 20.48081 37004 ft 472 kts 140°
2026-05-05 11:41 44.80454 20.54929 37012 ft 470 kts 140°
2026-05-05 11:41 44.74664 20.61737 37006 ft 471 kts 140°
2026-05-05 11:42 44.68906 20.68494 37001 ft 472 kts 141°
2026-05-05 11:42 44.63080 20.75311 37005 ft 472 kts 141°
2026-05-05 11:43 44.57257 20.82105 37008 ft 473 kts 141°
2026-05-05 11:43 44.51410 20.88909 37010 ft 472 kts 141°
2026-05-05 11:44 44.45622 20.95626 37001 ft 462 kts 140°
2026-05-05 11:44 44.40013 21.02118 36998 ft 473 kts 140°
2026-05-05 11:45 44.34149 21.08887 36990 ft 476 kts 141°
2026-05-05 11:45 44.28747 21.15107 36998 ft 477 kts 141°
2026-05-05 11:46 44.23350 21.21304 37012 ft 476 kts 140°
2026-05-05 11:46 44.17593 21.27898 37015 ft 477 kts 140°
2026-05-05 11:47 44.11916 21.34385 37020 ft 477 kts 140°
2026-05-05 11:47 44.06157 21.40947 37020 ft 477 kts 141°
2026-05-05 11:48 43.97074 21.50217 37035 ft 479 kts 145°
2026-05-05 11:48 43.90875 21.56223 37045 ft 480 kts 144°
2026-05-05 11:49 43.84743 21.62231 37052 ft 479 kts 144°
2026-05-05 11:49 43.78637 21.68259 37059 ft 480 kts 144°
2026-05-05 11:50 43.72535 21.74294 37063 ft 480 kts 144°
2026-05-05 11:50 43.66618 21.80142 37057 ft 481 kts 144°
2026-05-05 11:51 43.60733 21.85942 37049 ft 482 kts 144°
2026-05-05 11:51 43.54799 21.91775 37051 ft 482 kts 144°
2026-05-05 11:52 43.49122 21.97343 37057 ft 482 kts 144°
2026-05-05 11:52 43.43164 22.03175 37062 ft 482 kts 144°
2026-05-05 11:53 43.37149 22.09046 37063 ft 484 kts 144°
2026-05-05 11:53 43.31075 22.14959 37052 ft 483 kts 144°
2026-05-05 11:54 43.25019 22.20841 37046 ft 484 kts 144°
2026-05-05 11:54 43.18923 22.26748 37056 ft 485 kts 144°
2026-05-05 11:55 43.12845 22.32623 37072 ft 485 kts 144°
2026-05-05 11:55 43.06719 22.38525 37071 ft 484 kts 144°
2026-05-05 11:56 43.00614 22.44392 37083 ft 484 kts 144°
2026-05-05 11:56 42.94522 22.50236 37091 ft 486 kts 144°
2026-05-05 11:57 42.88542 22.55963 37090 ft 486 kts 144°
2026-05-05 11:57 42.82550 22.61683 37097 ft 487 kts 144°
2026-05-05 11:58 42.76621 22.67331 37101 ft 487 kts 145°
2026-05-05 11:58 42.70567 22.73080 37100 ft 487 kts 144°
2026-05-05 11:59 42.64355 22.78961 37088 ft 488 kts 145°
2026-05-05 11:59 42.58155 22.84818 37079 ft 488 kts 145°
2026-05-05 12:00 42.52016 22.90609 37076 ft 488 kts 144°
2026-05-05 12:00 42.45825 22.96435 37075 ft 487 kts 145°
2026-05-05 12:01 42.39648 23.02236 37096 ft 489 kts 144°
2026-05-05 12:01 42.33489 23.08007 37103 ft 489 kts 144°
2026-05-05 12:02 42.27232 23.13846 37106 ft 489 kts 145°
2026-05-05 12:02 42.21116 23.19519 37117 ft 489 kts 145°
2026-05-05 12:03 42.14873 23.25322 37125 ft 490 kts 145°
2026-05-05 12:03 42.08706 23.31050 37127 ft 490 kts 144°
2026-05-05 12:04 42.02714 23.36589 37126 ft 489 kts 145°